This is the latest recevied weather packets stored in our database for station/object KJ6BBX. If no packets are shown the sender has not sent any weather packets the latest 10 day(s).
| Time | Temp. | Humidity | Pressure | Rain* | Wind** | Luminosity | Snow |
|---|---|---|---|---|---|---|---|
| 1777440014 | 12.78° C | 80% | 1009.2 hPa | 0 mm | - | 0 W/m² | - |
| 1777439114 | 12.78° C | 79% | 1009.4 hPa | 0 mm | - | 0 W/m² | - |
| 1777438214 | 13.33° C | 79% | 1009.6 hPa | 0 mm | - | 0 W/m² | - |
| 1777437314 | 13.33° C | 78% | 1009.5 hPa | 0 mm | - | 0 W/m² | - |
| 1777436414 | 13.33° C | 78% | 1009.2 hPa | 0 mm | - | 0 W/m² | - |
| 1777435515 | 13.89° C | 77% | 1008.9 hPa | 0 mm | - | 0 W/m² | - |
| 1777434614 | 13.89° C | 76% | 1008.6 hPa | 0 mm | - | 0 W/m² | - |
| 1777433715 | 13.89° C | 75% | 1008.6 hPa | 0 mm | - | 0 W/m² | - |
| 1777432814 | 14.44° C | 75% | 1008.4 hPa | 0 mm | - | 0 W/m² | - |
| 1777431914 | 15° C | 74% | 1008.4 hPa | 0 mm | - | 0 W/m² | - |
| 1777431014 | 15.56° C | 71% | 1008.4 hPa | 0 mm | - | 0 W/m² | - |
| 1777430116 | 16.11° C | 70% | 1008.2 hPa | 0 mm | - | 1 W/m² | - |
| 1777429214 | 16.67° C | 67% | 1008.1 hPa | 0 mm | - | 6 W/m² | - |
| 1777428314 | 17.22° C | 63% | 1008.3 hPa | 0 mm | - | 13 W/m² | - |
| 1777427414 | 17.78° C | 60% | 1008 hPa | 0 mm | - | 19 W/m² | - |
| 1777426514 | 17.78° C | 57% | 1008.1 hPa | 0 mm | - | 25 W/m² | - |
| 1777425614 | 18.33° C | 54% | 1008 hPa | 0 mm | - | 29 W/m² | - |
| 1777424714 | 18.89° C | 53% | 1008.2 hPa | 0 mm | - | 33 W/m² | - |
| 1777423813 | 19.44° C | 50% | 1008.2 hPa | 0 mm | - | 130 W/m² | - |
| 1777422913 | 20° C | 50% | 1008.1 hPa | 0 mm | - | 95 W/m² | - |
| 1777422014 | 21.11° C | 48% | 1008 hPa | 0 mm | - | 144 W/m² | - |
| 1777421114 | 21.11° C | 48% | 1008.2 hPa | 0 mm | - | 104 W/m² | - |
| 1777420213 | 21.67° C | 47% | 1008.2 hPa | 0 mm | - | 288 W/m² | - |
| 1777419313 | 22.22° C | 48% | 1008.1 hPa | 0 mm | - | 321 W/m² | - |
| 1777418415 | 22.78° C | 48% | 1008.1 hPa | 0 mm | - | 334 W/m² | - |
* Rain since midnight (hover to see other rain measurements)
** Current wind speed in m/s (hover to see current wind gust speed)